This is the latest recevied weather packets stored in our database for station/object IV3ONZ. If no packets are shown the sender has not sent any weather packets the latest 10 day(s).
| Time | Temp. | Humidity | Pressure | Rain* | Wind** | Luminosity | Snow |
|---|---|---|---|---|---|---|---|
| 1777486634 | 13.33° C | 68% | 1021.9 hPa | 0 mm | - | 0 W/m² | - |
| 1777485904 | 13.33° C | 67% | 1021.5 hPa | 0 mm | - | 3 W/m² | - |
| 1777485604 | 13.33° C | 67% | 1021.4 hPa | 0 mm | - | 5 W/m² | - |
| 1777484703 | 13.33° C | 67% | 1021.5 hPa | 0 mm | - | 13 W/m² | - |
| 1777483634 | 13.33° C | 69% | 1021.3 hPa | 0 mm | - | 29 W/m² | - |
| 1777482904 | 13.33° C | 72% | 1021.1 hPa | 0 mm | - | 46 W/m² | - |
| 1777477803 | 13.89° C | 76% | 1021.2 hPa | 0 mm | - | 63 W/m² | - |
| 1777477203 | 13.89° C | 78% | 1020.9 hPa | 0 mm | - | 60 W/m² | - |
| 1777476737 | 14.44° C | 75% | 1021 hPa | 0 mm | - | 52 W/m² | - |
| 1777476004 | 14.44° C | 72% | 1020.9 hPa | 0 mm | - | 41 W/m² | - |
| 1777474504 | 14.44° C | 72% | 1020.7 hPa | 0 mm | - | 52 W/m² | - |
| 1777472105 | 15° C | 70% | 1021 hPa | 0 mm | - | 49 W/m² | - |
| 1777471804 | 15° C | 69% | 1021 hPa | 0 mm | - | 54 W/m² | - |
| 1777469404 | 15° C | 69% | 1021.2 hPa | 0 mm | - | 156 W/m² | - |
| 1777467904 | 15.56° C | 69% | 1021 hPa | 0 mm | - | 232 W/m² | - |
| 1777467604 | 15.56° C | 69% | 1021.1 hPa | 0 mm | - | 240 W/m² | - |
| 1777467304 | 15.56° C | 70% | 1021.2 hPa | 0 mm | - | 281 W/m² | - |
| 1777467137 | 15° C | 69% | 1021.1 hPa | 0 mm | - | 277 W/m² | - |
| 1777464904 | 15.56° C | 72% | 1021.1 hPa | 0.25 mm | - | 143 W/m² | - |
| 1777464004 | 15° C | 77% | 1021 hPa | 0.25 mm | - | 230 W/m² | - |
| 1777462806 | 15° C | 78% | 1021.2 hPa | 0.25 mm | - | 179 W/m² | - |
| 1777461304 | 15.56° C | 72% | 1021.2 hPa | 0 mm | - | 129 W/m² | - |
| 1777461005 | 16.11° C | 70% | 1021.4 hPa | 0 mm | - | 121 W/m² | - |
| 1777459504 | 17.22° C | 61% | 1021.6 hPa | 0 mm | - | 88 W/m² | - |
| 1777458604 | 17.78° C | 58% | 1021.3 hPa | 0 mm | - | 76 W/m² | - |
* Rain latest hour (hover to see other rain measurements)
** Current wind speed in m/s (hover to see current wind gust speed)